Lid_Strength_Index
3 5 4 5 8 11 12 11 10 10 10 10 6 8 7 6 8 9 1 0 -0 -0 -1 -1 -1 -2 -2 -2 -2 -2 -2 -2 -2 -2 -2 -2 -2 -2 -2 -2 -3 -2 -2 -2 -2 -2 -2 -2 -2
4 4 5 8 11 13 13 11 11 9 8 6 8 7 6 7 5 4 3 0 -1 -1 -1 -1 -1 -2 -2 -2 -2 -2 -2 -2 -2 -2 -2 -2 -2 -2 -2 -2 -3 -3 -2 -2 -2 -2 -2 -2 -2
4 6 6 10 13 13 13 11 10 9 7 8 8 5 6 6 4 3 1 -0 -1 -1 -1 -1 -1 -2 -2 -2 -2 -2 -2 -2 -2 -2 -2 -2 -2 -2 -2 -2 -2 -3 -2 -2 -2 -2 -2 -2 -2
6 7 9 12 12 11 11 11 9 9 8 8 6 7 5 3 3 2 -0 -0 -0 -0 -1 -1 -1 -2 -2 -2 -2 -2 -2 -2 -2 -2 -2 -2 -2 -2 -2 -2 -2 -2 -2 -2 -2 -2 -2 -2 -2
7 9 11 12 12 11 11 9 9 9 9 8 7 7 6 3 2 0 0 -0 0 -0 -1 -1 -1 -1 -2 -2 -2 -2 -2 -2 -2 -2 -2 -2 -2 -2 -2 -2 -2 -2 -2 -2 -2 -2 -2 -2 -2
9 9 12 13 12 11 9 9 9 9 9 8 7 7 6 3 2 1 0 0 -0 -0 -1 -1 0 -0 -1 -2 -2 -2 -2 -2 -2 -2 -2 -2 -2 -2 -2 -2 -2 -2 -2 -2 -2 -2 -2 -2 -2
9 11 13 13 12 11 9 9 9 10 9 8 6 7 5 4 2 1 0 -0 -0 -0 -0 -1 -1 -0 0 -1 -1 -1 -2 -2 -2 -2 -2 -2 -2 -2 -2 -2 -2 -2 -2 -2 -2 -2 -2 -2 -2
10 11 13 13 13 11 10 9 9 9 9 6 5 8 7 4 2 1 0 0 0 0 0 -1 -1 -1 -1 -1 0 -0 -1 -1 -1 -0 0 0 -1 -2 -2 -1 -2 -2 -2 -2 -2 -1 -2 -2 -2
9 12 13 12 12 11 10 10 9 8 8 8 6 7 5 2 2 2 2 2 2 2 0 -0 -1 -1 -1 -1 -0 0 0 -0 0 1 2 1 -0 -0 -1 -1 -2 -2 -2 -2 -2 -2 -2 -1 -1
10 12 12 11 11 11 10 10 9 9 9 9 7 5 3 2 3 3 3 3 3 2 1 0 -0 -1 -1 -1 -1 -1 -1 -1 -1 0 0 0 0 0 -1 -0 -1 -2 -1 -2 -1 -1 1 1 1
10 12 11 11 10 10 10 10 9 9 10 8 8 7 4 3 3 3 3 3 3 2 2 1 1 -1 -0 -0 -0 -1 -1 -1 -1 0 1 1 0 -1 -1 -1 -1 -1 1 1 1 2 2 2 1
11 11 11 10 10 10 10 10 10 10 9 8 8 6 4 4 4 4 3 3 2 2 2 1 0 0 -0 -0 -0 0 0 0 0 0 1 1 0 0 -0 -0 -0 0 1 2 3 3 3 3 3
12 12 11 10 11 11 10 11 10 10 9 9 9 5 4 4 4 3 2 2 2 2 2 1 0 0 0 0 -0 1 1 1 1 1 1 1 1 1 1 1 1 2 2 3 4 3 4 4 4
11 11 12 11 11 11 12 13 12 11 11 11 9 7 4 4 4 4 3 3 2 1 2 1 0 0 0 0 1 1 1 1 1 2 2 2 2 1 1 2 2 3 3 4 4 4 4 5 5
11 12 12 12 12 12 11 13 12 11 11 11 10 10 7 4 4 4 3 3 2 2 1 1 1 1 1 0 0 1 1 2 2 2 2 2 2 2 2 3 3 4 4 5 5 6 6 6 7
13 13 15 13 12 12 12 15 13 12 12 11 11 11 11 9 4 4 3 2 3 2 2 1 1 1 1 0 0 1 2 2 2 2 2 3 3 3 3 3 4 5 5 5 6 6 6 7 7
14 17 16 14 12 12 13 14 12 11 12 11 11 11 11 11 10 8 3 3 2 2 2 1 1 1 1 1 1 1 1 2 2 2 2 2 3 3 3 3 4 5 6 6 6 7 6 7 9
16 16 16 16 14 13 14 13 12 11 12 11 11 11 11 11 9 9 9 5 2 2 2 1 1 1 1 1 1 1 1 2 2 3 3 3 3 3 4 4 6 6 7 7 7 8 8 8 9
14 15 16 15 13 14 14 14 13 12 12 12 11 11 10 10 9 9 9 9 7 3 1 1 1 1 1 1 2 2 2 2 2 3 3 3 3 3 4 5 6 7 7 7 8 10 10 10 10
15 16 16 14 13 13 15 14 13 12 12 11 11 11 11 11 10 10 10 10 10 7 3 1 1 1 1 1 1 1 1 1 1 2 3 3 3 3 4 5 7 7 8 8 9 9 11 12 11
16 16 16 15 15 15 16 16 15 14 13 12 12 11 11 11 11 11 11 10 10 10 7 3 1 1 1 0 1 1 1 2 1 2 3 3 3 4 4 5 6 7 8 9 9 9 9 11 11
16 14 14 15 16 18 16 20 17 15 14 13 12 13 12 11 11 10 10 10 10 10 10 5 2 1 1 0 1 1 2 3 1 1 1 2 3 4 4 5 6 6 7 8 9 9 9 10 12
15 13 14 14 16 17 18 18 17 16 14 13 13 12 11 11 10 10 10 10 9 8 9 9 5 2 1 1 1 1 2 1 1 2 2 2 3 2 3 4 5 6 6 7 8 9 8 9 8
13 14 15 16 17 20 18 18 18 17 15 14 13 13 12 12 11 11 10 10 9 9 6 7 7 4 1 1 1 1 2 2 3 2 2 3 3 3 3 3 4 5 6 7 8 8 9 8 8
14 15 19 20 20 20 19 18 17 15 14 14 13 12 12 11 11 11 11 10 10 9 9 5 4 4 2 2 2 1 1 1 2 3 2 3 3 4 3 3 4 5 5 6 7 8 9 9 9
15 15 18 22 22 20 17 19 17 14 13 12 11 12 11 11 11 11 11 10 10 10 9 8 7 5 3 3 3 3 3 3 3 3 3 3 3 2 3 3 3 4 4 5 6 7 8 8 8
14 16 15 18 24 21 18 17 15 14 12 12 12 12 12 12 12 11 11 11 10 10 9 9 8 8 7 6 4 4 4 4 5 5 5 5 5 5 5 4 4 4 4 4 4 5 7 7 8
13 12 16 17 23 23 20 19 17 15 13 13 13 13 12 12 12 12 12 11 11 10 10 9 9 9 9 8 7 7 7 6 7 7 6 6 6 6 5 6 5 5 5 5 5 6 6 7 8
15 15 16 15 17 20 23 19 16 15 13 13 13 13 13 13 12 12 11 11 11 11 11 11 11 10 9 9 8 8 8 8 7 7 7 7 7 7 7 7 6 6 6 6 6 6 7 8 8
14 14 14 16 19 20 19 18 14 13 12 12 12 12 12 12 12 12 11 11 11 12 12 12 11 11 10 10 9 9 9 9 9 9 8 8 8 9 9 9 9 8 7 7 7 7 7 8 8